Location: Caltech
(34.1382°N, 118.1253°W)
Time: 15:11:21
(UTC-08:00)

Cosmos 1975 - Visible Passes

Search period start: 25 November 2014 00:00
Search period end: 05 December 2014 00:00
Orbit: 553 x 573 km, 82.5° (Epoch: 24 November)

Date Brightness Start Highest point End Pass type
(mag) Time Alt. Az. Time Alt. Az. Time Alt. Az.
25 Nov 3.3 17:51:19 10° NNE 17:55:08 37° E 17:58:54 10° SSE visible
25 Nov 6.1 19:29:47 10° WNW 19:31:23 12° W 19:32:59 10° WSW visible
26 Nov 3.1 17:50:55 10° N 17:54:52 46° E 17:58:46 10° SSE visible
27 Nov 2.8 17:50:32 10° N 17:54:35 58° E 17:58:34 10° SSE visible
28 Nov 4.9 06:08:59 10° SSE 06:12:41 33° E 06:16:25 10° NNE visible
28 Nov 2.7 17:50:12 10° N 17:54:17 74° E 17:58:20 10° S visible
29 Nov 4.4 06:08:28 10° SSE 06:12:21 41° E 06:16:16 10° NNE visible
29 Nov 2.8 17:49:53 10° N 17:53:59 87° W 17:58:01 10° S visible
30 Nov 3.9 06:08:00 10° S 06:12:01 52° E 06:16:03 10° NNE visible
30 Nov 3.2 17:49:35 10° NNW 17:53:39 69° W 17:57:40 10° S visible
01 Dec 3.4 06:07:36 10° S 06:11:41 66° E 06:15:48 10° NNE visible
01 Dec 3.6 17:49:19 10° NNW 17:53:19 54° W 17:57:15 10° S visible
02 Dec 3.0 06:07:13 10° S 06:11:21 84° E 06:15:30 10° N visible
02 Dec 4.2 17:49:06 10° NNW 17:52:58 43° W 17:56:47 10° SSW visible
03 Dec 2.9 06:06:54 10° S 06:11:01 78° W 06:15:10 10° N visible
03 Dec 4.7 17:48:54 10° NNW 17:52:36 34° W 17:56:15 10° SSW visible
04 Dec 2.9 06:06:37 10° SSW 06:10:41 62° W 06:14:48 10° N visible
04 Dec 5.1 17:48:44 10° NNW 17:52:13 28° W 17:55:39 10° SSW visible
